India Forums Logo

Taarak Mehta Ka Ooltah Chashmah

India Forums > Forum Index > Taarak Mehta Ka Ooltah Chashmah
Taarak Mehta Ka Ooltah Chashmah evolves around happenings in
...
<< | 7 | 8 | 9 | 10 | 11 | 12 | 13 | 14 | 15 | 16 | 17 | 18 | 19 | 20 | 21 | 22 | 23 | 24 | 25 | ... >>
TIDTopic SubjectStart DateLast Entry
1732821Taarak Mehta at gold awards link7/17/2011 12:24:35 PM7/17/2011 10:59:57 PM
1734093TAM ratings 03/07/2011 to 09/07/2011.7/19/2011 7:46:10 AM7/21/2011 9:27:38 AM
1734217!~~*WRITTEN UPDATE 19TH JULY 2011*~~!7/19/2011 9:29:18 AM7/20/2011 8:36:07 AM
1735164!~~*WRITTEN UPDATE 20TH JULY 2011*~~!7/20/2011 9:36:22 AM7/21/2011 1:34:17 PM
173571120th July SBS Youtube Link7/21/2011 1:59:39 AM7/21/2011 9:25:15 AM
1736150!~~*WRITTEN UPDATE 21TH JULY 2011*~~!7/21/2011 11:13:09 AM7/21/2011 1:32:29 PM
1736595Big Blooper on 21-7-2011!!!7/22/2011 2:33:07 AM8/18/2011 12:07:19 PM
1736649TAM 10/07/11 - 16/07/11.7/22/2011 3:19:48 AM7/25/2011 7:25:48 AM
1736929!~~*WRITTEN UPDATE 22nd JULY 2011*~~!7/22/2011 9:36:58 AM7/22/2011 12:03:17 PM
1738773!~~*WRITTEN UPDATE 25TH JULY 2011*~~!7/25/2011 9:45:24 AM7/26/2011 10:32:16 AM
1739367TB:Yashpal Sharma to kidnap Daya in Taarak Mehta..7/26/2011 3:04:35 AM7/28/2011 11:09:52 PM
1739569TOI: Dayaben down with Malaria7/26/2011 7:07:40 AM7/28/2011 10:46:47 PM
1739798!~~*WRITTEN UPDATE 26TH JULY 2011*~~!7/26/2011 10:36:57 AM7/27/2011 9:29:52 AM
1740095New here-Introduce yourself!7/26/2011 4:36:24 PM7/26/2011 4:36:24 PM
1740696!~~*WRITTEN UPDATE 27TH JULY 2011*~~!7/27/2011 9:41:07 AM7/27/2011 4:35:43 PM
1741666!~~*WRITTEN UPDATE 28TH JULY 2011*~~!7/28/2011 10:10:41 AM7/29/2011 5:14:22 AM
1742122How Old Is DISHA VAKANI?7/28/2011 10:50:12 PM7/31/2011 8:59:18 AM
1742206Daya Jetha Met Big B7/29/2011 1:24:24 AM7/29/2011 1:24:24 AM
1742613!~~*WRITTEN UPDATE 29TH JULY 2011*~~!7/29/2011 9:44:47 AM7/29/2011 12:56:28 PM
1744633!~~*WRITTEN UPDATE 1st AUGUST2011*~~!8/1/2011 10:56:42 AM8/4/2011 9:58:08 AM
1744868TOI: Big fans of Big B!8/1/2011 7:05:55 PM8/3/2011 5:38:27 AM
1745115On Location of Taarak Mehta Ka Ooltah Chashmah8/2/2011 5:31:05 AM8/2/2011 5:42:18 AM
1745167Spy-pen Goonda: Advertizement or Awareness?8/2/2011 6:56:53 AM8/2/2011 6:56:53 AM
1745173Chaddi Gang ki Gawahi: Guess the outcome of this t8/2/2011 7:06:53 AM8/17/2011 9:57:11 AM
1745198Dare to attempt? Trivia Quiz for true fans8/2/2011 7:25:10 AM8/5/2011 12:44:43 PM
1746063TAM 17/07/11 - 23/07/11.8/3/2011 6:04:20 AM8/11/2011 11:56:55 AM
1746231hello8/3/2011 9:34:30 AM8/7/2011 12:22:42 AM
1746987Young at heart couples-Daya/Jetha8/4/2011 7:24:57 AM8/4/2011 7:53:45 AM
1748104!~~*WRITTEN UPDATE 5TH AUGUST 2011*~~!8/5/2011 9:46:53 AM8/5/2011 9:26:38 PM
1748970TV Celebs wishing Friendship Day[Daya-Jetha]8/6/2011 10:57:59 AM8/7/2011 12:12:34 AM
1749112If SAB/Sony TV are Smart. They would...8/6/2011 5:35:13 PM8/7/2011 1:35:02 PM
1749316Happy friendship day8/7/2011 4:24:53 AM8/16/2011 12:06:36 PM
1749777TB:Celebrity Galore on SRGMP[Daya-Jetha]8/8/2011 1:10:56 AM8/12/2011 1:38:23 AM
1750176!~~*WRITTEN UPDATE 8TH AUGUST 2011*~~!8/8/2011 9:34:50 AM8/11/2011 11:49:26 AM
1752932GEC Watch; TMKOC @10.8/11/2011 6:46:19 AM8/11/2011 11:51:35 AM
1753109!~~*WRITTEN UPDATE 11TH AUGUST 2011*~~!8/11/2011 9:33:49 AM8/11/2011 12:49:33 PM
1753935TAM 31/07/11 - 06/08/11.8/12/2011 6:45:13 AM8/15/2011 9:53:05 PM
1754120Chaddi Gang Track stretched too much !8/12/2011 9:59:53 AM8/20/2011 10:57:03 AM
1754234Stars celebrate Rakhi-Dilip/Disha8/12/2011 11:28:04 AM8/15/2011 9:55:57 AM
1755474Happy Independence day8/14/2011 1:50:33 PM8/15/2011 9:51:00 AM
1756033!~~*WRITTEN UPDATE 15TH AUGUST 2011*~~!8/15/2011 9:46:55 AM8/18/2011 12:23:32 PM
1757837Lovely,Wonderful track!!8/17/2011 12:34:22 PM8/17/2011 12:34:22 PM
1757858TOI: Shailesh prepares 4th look8/17/2011 12:54:51 PM8/17/2011 12:54:51 PM
1759033Jethalal thrilled with Big B praise8/18/2011 7:54:54 AM8/18/2011 2:10:13 PM
1759386Munni...Sheila8/18/2011 11:53:51 AM8/24/2011 12:57:44 AM
1759979Another Blooper8/18/2011 11:57:09 PM8/21/2011 11:30:07 PM
1760008GEC Watch8/19/2011 12:52:52 AM8/21/2011 10:17:26 PM
1760051Taarak Mehta (TMKOC) 18th August 2011 Written Update8/19/2011 2:05:34 AM8/19/2011 9:23:42 AM
1760557TAM 07/08/11 - 13/08/118/19/2011 8:53:44 AM8/20/2011 6:46:18 AM
1761330TOI: Disha on Janmastami8/19/2011 8:56:16 PM8/19/2011 8:56:16 PM
1761423(TMKOC) 19th August 2011 Written Update8/20/2011 1:01:17 AM8/22/2011 1:38:11 PM
1762038hello people.. new to dis forum8/21/2011 2:13:56 AM8/21/2011 7:48:16 AM
1762571big tv award8/22/2011 2:44:56 AM8/24/2011 1:03:53 AM
1762711TB:Janmashtami- The festive season for shows...8/22/2011 5:32:33 AM8/22/2011 5:32:33 AM
1764042Taarak Mehta (TMKOC) 23rd August 2011 Written Update8/23/2011 12:39:18 PM8/23/2011 3:58:30 PM
1764946Taarak Mehta (TMKOC) 24th August 2011 Written Update8/24/2011 11:41:50 AM8/24/2011 1:17:12 PM
1765633TAM 14/08/11 - 20/08/118/25/2011 8:08:31 AM9/2/2011 8:42:42 AM
1766502Haathi mere saathi on Taarak Mehta8/26/2011 6:08:56 AM8/30/2011 10:50:18 AM
1768315Jethalal Gada in hum aapke hain kaun8/28/2011 5:28:51 PM8/31/2011 8:14:50 PM
1771978Sodhi's track9/1/2011 12:50:47 PM9/14/2011 4:02:58 AM
1773214TB:Taarak Mehta falling short of directors?9/3/2011 8:16:04 AM9/7/2011 6:49:47 AM
1774952Trouble for TMKOC -- indya.com9/6/2011 4:06:05 AM9/6/2011 4:06:05 AM
1776256Plzz read this..9/7/2011 10:03:23 AM9/8/2011 5:52:56 AM
1776925gokuldham's fancy dress9/8/2011 4:22:19 AM9/13/2011 11:55:58 PM
1777573TMKOC TRPs falling...9/8/2011 1:03:41 PM10/23/2011 6:10:37 AM
1778081Jetha turns Jaleba Baba--indya.com9/9/2011 6:28:44 AM9/9/2011 6:28:44 AM
1778384Most comedy act9/9/2011 10:37:47 AM9/10/2011 1:35:12 PM
1779484Wish him..9/11/2011 3:37:25 AM9/11/2011 1:35:01 PM
1779759happy birthday to ishan- backbone of tmkoc forum9/11/2011 1:29:49 PM9/13/2011 9:52:49 AM
1779918rohan9/12/2011 12:29:11 AM9/12/2011 7:07:43 AM
1782171Roshan as sardar9/13/2011 11:53:53 PM9/14/2011 6:14:19 PM
178739316th sep-SBS-Daya bangayi doctor9/16/2011 12:56:30 PM9/18/2011 12:22:03 PM
1793250New Promo-"If Taarak eats I will fast for 30 days":Daya9/19/2011 12:14:41 PM9/21/2011 6:29:16 PM
1795105Amiri Khaman in Taarak Mehta9/20/2011 9:24:59 AM9/22/2011 1:56:31 AM
1795580TOI: TV shows dont need hosts-Shailesh9/20/2011 1:21:53 PM9/20/2011 1:59:28 PM
<< | 7 | 8 | 9 | 10 | 11 | 12 | 13 | 14 | 15 | 16 | 17 | 18 | 19 | 20 | 21 | 22 | 23 | 24 | 25 | ... >>